Stations météo

réclame
Mon MeteoGroup
Semmerzake, Belgique (6428): Température de l'air & dewpoint: 19.02.2018 02:00:00 - 25.02.2018 02:00:00 (CET)Semmerzake, Belgique (6428): Vitesse du vent & gusts: 19.02.2018 02:00:00 - 25.02.2018 02:00:00 (CET)Semmerzake, Belgique (6428): Direction du vent: 19.02.2018 02:00:00 - 25.02.2018 02:00:00 (CET)Semmerzake, Belgique (6428): reduced air pressure: 19.02.2018 02:00:00 - 25.02.2018 02:00:00 (CET)Semmerzake, Belgique (6428): visibility: 19.02.2018 02:00:00 - 25.02.2018 02:00:00 (CET)
Date & Time tt [°C] td [°C] ff [km/h] ff [knt] fx [km/h] fx [knt] dd ppp [hPa] vv [km]
25.02.2018 02:00:00 -1,8 -8,9 14 8 32 18 ENE 1025,7 20
25.02.2018 01:00:00 -1,5 -8,6 14 8 - - ENE 1025,9 20
25.02.2018 00:00:00 -1,0 -8,4 14 8 32 18 ENE 1025,7 20
24.02.2018 23:00:00 -0,5 -8,0 18 10 40 21 ENE 1025,2 20
24.02.2018 22:00:00 -0,1 -7,2 22 12 - - ENE 1024,9 20
24.02.2018 21:00:00 0,3 -6,5 22 12 50 27 ENE 1024,4 20
24.02.2018 20:00:00 0,9 -6,3 22 12 43 23 ENE 1024,0 20
24.02.2018 19:00:00 1,3 -6,4 22 12 - - ENE 1023,6 20
24.02.2018 18:00:00 3,0 -7,3 22 12 43 23 ENE 1022,7 20
24.02.2018 17:00:00 4,3 -8,1 22 12 43 23 ENE 1022,3 20
24.02.2018 16:00:00 5,0 -8,9 25 14 - - ENE 1022,1 20
24.02.2018 15:00:00 4,9 -9,5 18 10 47 25 E 1021,8 20
24.02.2018 14:00:00 4,0 -11,4 25 14 47 25 E 1022,1 18
24.02.2018 13:00:00 3,3 -11,6 18 10 - - E 1022,2 19
24.02.2018 12:00:00 1,5 -12,3 22 12 40 21 ENE 1022,7 16
24.02.2018 11:00:00 0,0 -11,6 22 12 40 21 ENE 1022,7 17
24.02.2018 10:00:00 -1,4 -11,4 18 10 - - E 1022,6 13
24.02.2018 09:00:00 -2,8 -11,0 14 8 32 18 E 1022,5 13
24.02.2018 08:00:00 -3,6 -10,6 14 8 32 18 ENE 1022,0 16
24.02.2018 07:00:00 -3,5 -10,4 14 8 - - ENE 1021,5 19
24.02.2018 06:00:00 -3,3 -9,8 14 8 25 14 ENE 1021,2 19
24.02.2018 05:00:00 -2,9 -9,4 14 8 32 18 ENE 1021,1 18
24.02.2018 04:00:00 -2,5 -8,8 14 8 - - ENE 1020,8 19
24.02.2018 03:00:00 -2,4 -7,9 14 8 29 16 ENE 1021,0 17
24.02.2018 02:00:00 -2,1 -7,2 11 6 29 16 ENE 1020,7 15
24.02.2018 01:00:00 -1,8 -6,9 14 8 - - ENE 1020,5 15
24.02.2018 00:00:00 -1,4 -7,3 11 6 25 14 ENE 1020,2 19
23.02.2018 23:00:00 -1,0 -7,2 14 8 29 16 ENE 1020,1 18
23.02.2018 22:00:00 -0,7 -7,0 11 6 - - ENE 1020,3 19
23.02.2018 21:00:00 -0,1 -6,9 14 8 25 14 ENE 1020,2 19
23.02.2018 20:00:00 0,1 -7,0 11 6 29 16 ENE 1020,2 18
23.02.2018 19:00:00 0,8 -7,9 11 6 - - ENE 1020,0 20
23.02.2018 18:00:00 1,6 -8,0 14 8 32 18 ENE 1019,8 20
23.02.2018 17:00:00 2,5 -8,6 22 12 36 19 ENE 1019,6 20
23.02.2018 16:00:00 2,7 -8,3 22 12 - - ENE 1019,8 20
23.02.2018 15:00:00 2,9 -7,2 18 10 32 18 ENE 1020,2 19
23.02.2018 14:00:00 2,4 -6,0 18 10 29 16 ENE 1020,6 16
23.02.2018 13:00:00 1,7 -6,2 18 10 - - ENE 1021,2 13
23.02.2018 12:00:00 0,8 -4,9 22 12 43 23 ENE 1021,7 15
23.02.2018 11:00:00 0,4 -5,7 22 12 40 21 ENE 1022,1 13
23.02.2018 10:00:00 -0,1 -5,0 18 10 - - ENE 1022,2 11
23.02.2018 09:00:00 -1,8 -4,7 14 8 25 14 ENE 1022,5 8
23.02.2018 08:00:00 -2,9 -4,8 11 6 22 12 NE 1022,5 6
23.02.2018 07:00:00 -3,0 -4,9 11 6 - - NE 1022,2 6
23.02.2018 06:00:00 -2,3 -5,4 11 6 22 12 NE 1022,1 9
23.02.2018 05:00:00 -1,9 -5,4 11 6 22 12 ENE 1022,0 11
23.02.2018 04:00:00 -1,9 -5,5 11 6 - - NE 1022,0 12
23.02.2018 03:00:00 -1,8 -5,7 11 6 22 12 NE 1022,3 13
23.02.2018 02:00:00 -1,3 -5,8 11 6 18 10 ENE 1022,6 13
23.02.2018 01:00:00 -1,1 -5,6 11 6 - - NE 1022,7 13
23.02.2018 00:00:00 -0,6 -5,3 11 6 25 14 NE 1022,7 13
22.02.2018 23:00:00 0,1 -5,3 14 8 29 16 ENE 1022,7 15
22.02.2018 22:00:00 0,5 -5,2 14 8 - - ENE 1022,6 17
22.02.2018 21:00:00 0,9 -5,0 14 8 32 18 ENE 1022,2 19
22.02.2018 20:00:00 1,6 -4,9 14 8 29 16 ENE 1022,3 19
22.02.2018 19:00:00 2,0 -4,4 18 10 - - NE 1022,2 18
22.02.2018 18:00:00 3,0 -5,3 18 10 36 19 ENE 1022,0 20
22.02.2018 17:00:00 4,0 -5,1 22 12 40 21 ENE 1021,7 19
22.02.2018 16:00:00 4,5 -5,4 18 10 - - NE 1021,8 20
22.02.2018 15:00:00 4,7 -5,9 18 10 36 19 ENE 1022,2 20
22.02.2018 14:00:00 4,1 -6,0 22 12 40 21 NE 1023,2 19
22.02.2018 13:00:00 3,4 -5,3 14 8 - - ENE 1023,7 16
22.02.2018 12:00:00 2,7 -4,6 14 8 32 18 ENE 1024,0 17
22.02.2018 11:00:00 1,4 -3,8 14 8 25 14 ENE 1024,2 12
22.02.2018 10:00:00 -0,3 -4,0 11 6 - - ENE 1024,2 10
22.02.2018 09:00:00 -2,0 -4,5 11 6 14 8 NE 1024,2 7
22.02.2018 08:00:00 -3,0 -5,0 11 6 18 10 NE 1024,0 5
22.02.2018 07:00:00 -3,3 -5,0 11 6 - - NE 1023,7 4,8
22.02.2018 06:00:00 -3,1 -4,9 11 6 14 8 NE 1023,6 4,8
22.02.2018 05:00:00 -2,8 -4,6 11 6 14 8 NE 1023,5 4,8
22.02.2018 04:00:00 -2,5 -4,5 11 6 - - NE 1023,6 4,6
22.02.2018 03:00:00 -2,2 -4,2 11 6 14 8 NNE 1024,0 4,4
22.02.2018 02:00:00 -1,9 -3,9 11 6 14 8 NNE 1024,2 4,4
22.02.2018 01:00:00 -1,5 -3,4 11 6 - - NE 1024,5 3,9
22.02.2018 00:00:00 -1,2 -3,1 11 6 18 10 NE 1024,7 3,5
21.02.2018 23:00:00 -0,4 -2,6 11 6 22 12 NNE 1025,0 3,9
21.02.2018 22:00:00 0,3 -2,6 11 6 - - NE 1025,0 4,6
21.02.2018 21:00:00 0,6 -2,9 11 6 14 8 NNE 1025,0 5
21.02.2018 20:00:00 1,2 -2,5 11 6 25 14 NNE 1025,0 5
21.02.2018 19:00:00 2,2 -2,5 14 8 - - NNE 1024,9 5
21.02.2018 18:00:00 2,9 -2,4 14 8 25 14 NNE 1024,5 6
21.02.2018 17:00:00 3,8 -2,3 14 8 22 12 NNE 1024,4 7
21.02.2018 16:00:00 4,1 -2,0 14 8 - - NNE 1024,7 6
21.02.2018 15:00:00 4,3 -2,9 18 10 29 16 NNE 1025,4 6
21.02.2018 14:00:00 3,9 -2,4 14 8 22 12 NE 1026,0 5
21.02.2018 13:00:00 3,2 -2,7 11 6 - - NNE 1026,5 6
21.02.2018 12:00:00 2,5 -2,4 11 6 22 12 NE 1026,7 5
21.02.2018 11:00:00 1,5 -2,1 11 6 22 12 NE 1026,7 4,5
21.02.2018 10:00:00 0,1 -1,9 11 6 - - NE 1026,7 3,4
21.02.2018 09:00:00 -1,0 -2,5 11 6 18 10 NNE 1026,2 2,7
21.02.2018 08:00:00 -1,2 -2,9 14 8 18 10 NE 1025,9 2,9
21.02.2018 07:00:00 -1,8 -3,3 4 2 - - N 1026,0 2,9
21.02.2018 06:00:00 -1,2 -3,0 7 4 14 8 NNE 1025,7 3,0
21.02.2018 05:00:00 -1,1 -2,7 7 4 14 8 NNE 1025,2 3,1
21.02.2018 04:00:00 -0,7 -2,6 7 4 - - NNE 1025,0 3,4
21.02.2018 03:00:00 -0,7 -2,2 7 4 14 8 N 1024,7 3,4
21.02.2018 02:00:00 -0,1 -1,9 11 6 14 8 NE 1024,2 3,9
21.02.2018 01:00:00 0,1 -1,6 11 6 - - NE 1024,0 3,7
21.02.2018 00:00:00 1,1 -0,9 11 6 18 10 NE 1023,7 4,3
20.02.2018 23:00:00 2,1 -0,5 11 6 18 10 NNE 1023,1 5
20.02.2018 22:00:00 2,5 -0,8 11 6 - - NNE 1022,5 6
20.02.2018 21:00:00 2,9 -0,2 11 6 14 8 NE 1021,7 6
20.02.2018 20:00:00 3,0 -0,1 11 6 18 10 NE 1021,0 5
20.02.2018 19:00:00 3,5 -0,2 7 4 - - NNE 1020,2 5
20.02.2018 18:00:00 4,3 -0,1 7 4 14 8 NNE 1019,7 6
20.02.2018 17:00:00 4,9 -0,5 7 4 11 6 NE 1019,2 6
20.02.2018 16:00:00 5,1 -0,7 7 4 - - NE 1019,0 7
20.02.2018 15:00:00 5,3 -0,5 4 2 7 4 N 1018,8 8
20.02.2018 14:00:00 5,4 0,3 4 2 7 4 N 1019,1 7
20.02.2018 13:00:00 4,7 0,0 4 2 - - N 1019,3 6
20.02.2018 12:00:00 4,5 1,1 4 2 7 4 N 1019,3 5
20.02.2018 11:00:00 3,8 1,7 4 2 7 4 N 1019,2 4,9
20.02.2018 10:00:00 2,7 2,0 4 2 - - N 1019,6 3,3
20.02.2018 09:00:00 1,8 1,7 0 0 4 2 N 1018,8 2,4
20.02.2018 08:00:00 1,5 1,3 4 2 7 4 N 1018,8 1,9
20.02.2018 07:00:00 1,7 1,3 4 2 - - N 1018,2 3,2
20.02.2018 06:00:00 1,8 1,6 4 2 7 4 N 1018,2 3,9
20.02.2018 05:00:00 1,7 1,4 4 2 7 4 N 1018,2 3,3
20.02.2018 04:00:00 1,7 1,3 4 2 - - N 1017,8 4,7
20.02.2018 03:00:00 1,8 1,4 4 2 7 4 N 1018,0 4,1
20.02.2018 02:00:00 2,2 1,9 4 2 7 4 N 1017,6 3,6
20.02.2018 01:00:00 2,4 1,9 4 2 - - N 1017,3 4,0
20.02.2018 00:00:00 2,5 2,2 7 4 14 8 SSE 1017,6 2,5
19.02.2018 23:00:00 2,6 2,2 7 4 14 8 SE 1017,2 2,2
19.02.2018 22:00:00 2,7 2,3 7 4 - - SSE 1017,3 2,8
19.02.2018 21:00:00 2,7 2,3 7 4 14 8 SSE 1017,3 2,9
19.02.2018 20:00:00 2,9 2,3 7 4 14 8 S 1017,5 3,4
19.02.2018 19:00:00 2,9 2,3 7 4 - - S 1017,3 2,5
19.02.2018 18:00:00 3,0 2,5 7 4 18 10 S 1017,2 3,4
19.02.2018 17:00:00 3,2 2,7 7 4 22 12 SSE 1017,5 2,6
19.02.2018 16:00:00 3,5 2,6 11 6 - - S 1017,8 3,5
19.02.2018 15:00:00 3,4 2,3 11 6 18 10 S 1018,2 5
19.02.2018 14:00:00 2,9 2,2 7 4 18 10 S 1018,7 5
19.02.2018 13:00:00 1,8 0,8 11 6 - - S 1019,2 4,6
19.02.2018 12:00:00 1,6 0,3 11 6 22 12 S 1019,6 5
19.02.2018 11:00:00 1,0 -0,5 11 6 22 12 S 1019,7 5
19.02.2018 10:00:00 0,4 -1,5 11 6 - - S 1020,2 6
19.02.2018 09:00:00 0,0 -1,9 11 6 18 10 S 1020,3 6
19.02.2018 08:00:00 -0,3 -2,1 7 4 14 8 S 1020,6 5
19.02.2018 07:00:00 -0,3 -2,3 11 6 - - S 1020,3 6
19.02.2018 06:00:00 -0,1 -2,2 7 4 14 8 S 1020,7 6
19.02.2018 05:00:00 0,1 -2,0 7 4 14 8 S 1021,0 6
19.02.2018 04:00:00 0,3 -2,0 7 4 - - S 1021,3 7
19.02.2018 03:00:00 0,8 -1,9 11 6 18 10 S 1021,7 8
19.02.2018 02:00:00 0,8 -1,8 11 6 18 10 S 1022,5 8

tt = Température de l'air
td = dewpoint
ff = Vitesse du vent
fx = gusts
dd = Direction du vent
ppp = reduced air pressure
vv = visibility

stations d'obs. à proximité